PDA6026 UKBB-LGKR

Flight info

Callsign PDA6026
Flight time N/A
Altitude 36000
Route VESEL M141 IVF M986 LONLA/N0460F360 DCT PERIT DCT PARAK DCT PIVEX DCT ALELU DCT RINAV DCT PITAS
Aircraft B738/M-SDE2E3FGHIRWXY/LB1

Departure

Time N/A
Airport Boryspil International Airport (UKBB)

Arrival

Time 2026-05-07 20:12
Airport Corfu Ioannis Kapodistrias International Airport (LGKR)
Time Latitude Longitude Altitude Speed Heading
2026-05-07 19:51 40.87587 19.82000 36076 ft 434 kts 191°
2026-05-07 19:51 40.81577 19.82152 36066 ft 443 kts 191°
2026-05-07 19:52 40.75380 19.82314 35989 ft 450 kts 190°
2026-05-07 19:52 40.72275 19.82400 35446 ft 449 kts 191°
2026-05-07 19:52 40.69204 19.82491 34695 ft 444 kts 190°
2026-05-07 19:53 40.66145 19.82583 33921 ft 441 kts 190°
2026-05-07 19:53 40.63168 19.82672 33217 ft 440 kts 189°
2026-05-07 19:53 40.60156 19.82760 32459 ft 440 kts 188°
2026-05-07 19:53 40.57104 19.82844 31639 ft 439 kts 187°
2026-05-07 19:54 40.54095 19.82921 30808 ft 440 kts 186°
2026-05-07 19:54 40.51028 19.82998 29915 ft 441 kts 185°
2026-05-07 19:54 40.47993 19.83072 28973 ft 441 kts 185°
2026-05-07 19:54 40.44900 19.83151 27991 ft 440 kts 184°
2026-05-07 19:55 40.41853 19.83230 26995 ft 441 kts 184°
2026-05-07 19:55 40.38791 19.83306 25957 ft 441 kts 183°
2026-05-07 19:55 40.35728 19.83391 24818 ft 441 kts 183°
2026-05-07 19:55 40.32633 19.83477 23492 ft 445 kts 182°
2026-05-07 19:56 40.29469 19.83557 22191 ft 447 kts 182°
2026-05-07 19:56 40.26395 19.83634 21268 ft 439 kts 182°
2026-05-07 19:56 40.23339 19.83714 20363 ft 431 kts 182°
2026-05-07 19:56 40.20325 19.83793 19427 ft 423 kts 182°
2026-05-07 19:57 40.17362 19.83871 18465 ft 417 kts 182°
2026-05-07 19:57 40.14487 19.83934 17624 ft 408 kts 182°
2026-05-07 19:57 40.11680 19.83992 16877 ft 398 kts 182°
2026-05-07 19:57 40.08886 19.84058 16141 ft 387 kts 182°
2026-05-07 19:58 40.06231 19.84117 15451 ft 383 kts 182°
2026-05-07 19:58 40.03556 19.84175 14760 ft 382 kts 182°
2026-05-07 19:58 40.00903 19.84237 14080 ft 376 kts 181°
2026-05-07 19:58 39.98296 19.84303 13393 ft 364 kts 182°
2026-05-07 19:59 39.95804 19.84366 12736 ft 362 kts 181°
2026-05-07 19:59 39.93282 19.84427 12075 ft 364 kts 181°
2026-05-07 19:59 39.90721 19.84561 11472 ft 358 kts 176°
2026-05-07 19:59 39.88341 19.85166 11098 ft 342 kts 165°
2026-05-07 20:00 39.86166 19.86234 10923 ft 321 kts 160°
2026-05-07 20:00 39.84181 19.87324 10800 ft 302 kts 160°
2026-05-07 20:00 39.82219 19.88372 10655 ft 302 kts 161°
2026-05-07 20:00 39.80249 19.89390 10492 ft 296 kts 161°
2026-05-07 20:01 39.78365 19.90349 10351 ft 279 kts 162°
2026-05-07 20:01 39.76600 19.91241 10168 ft 265 kts 161°
2026-05-07 20:01 39.74852 19.92117 9837 ft 258 kts 161°
2026-05-07 20:01 39.73190 19.92948 9507 ft 253 kts 162°
2026-05-07 20:02 39.71521 19.93782 9173 ft 257 kts 161°
2026-05-07 20:02 39.69829 19.94629 8841 ft 257 kts 161°
2026-05-07 20:02 39.68176 19.95453 8522 ft 250 kts 160°
2026-05-07 20:02 39.66542 19.96268 8207 ft 248 kts 160°
2026-05-07 20:03 39.64911 19.97081 7884 ft 254 kts 160°
2026-05-07 20:03 39.63251 19.97910 7558 ft 249 kts 160°
2026-05-07 20:03 39.61637 19.98719 7243 ft 241 kts 160°
2026-05-07 20:03 39.60063 19.99502 6941 ft 243 kts 160°
2026-05-07 20:04 39.58458 20.00301 6631 ft 247 kts 159°
2026-05-07 20:04 39.56859 20.01100 6316 ft 241 kts 159°
2026-05-07 20:04 39.55299 20.01879 6011 ft 235 kts 159°
2026-05-07 20:04 39.53763 20.02644 5747 ft 238 kts 159°
2026-05-07 20:05 39.52241 20.03403 5564 ft 229 kts 159°
2026-05-07 20:05 39.50766 20.04136 5355 ft 223 kts 159°
2026-05-07 20:05 39.49273 20.04877 5046 ft 228 kts 159°
2026-05-07 20:05 39.47785 20.05617 4721 ft 225 kts 158°
2026-05-07 20:06 39.46274 20.06222 4388 ft 225 kts 173°
2026-05-07 20:06 39.44739 20.05835 4058 ft 228 kts 203°
2026-05-07 20:06 39.43409 20.04750 3817 ft 224 kts 213°
2026-05-07 20:06 39.42385 20.03193 3553 ft 228 kts 242°
2026-05-07 20:07 39.42060 20.01173 3305 ft 229 kts 264°
2026-05-07 20:07 39.42235 19.99104 3060 ft 231 kts 285°
2026-05-07 20:07 39.43083 19.97357 2970 ft 221 kts 319°
2026-05-07 20:07 39.44371 19.96422 2981 ft 200 kts 339°
2026-05-07 20:08 39.45618 19.95806 2979 ft 182 kts 341°
2026-05-07 20:08 39.46770 19.95294 2836 ft 172 kts 343°
2026-05-07 20:08 39.47945 19.94833 2519 ft 168 kts 346°
2026-05-07 20:08 39.49056 19.94444 2262 ft 161 kts 349°
2026-05-07 20:09 39.50156 19.94096 2017 ft 160 kts 349°
2026-05-07 20:09 39.51260 19.93757 1770 ft 159 kts 349°
2026-05-07 20:09 39.52327 19.93430 1528 ft 151 kts 349°
2026-05-07 20:10 39.54254 19.92869 1113 ft 136 kts 349°
2026-05-07 20:10 39.55184 19.92599 902 ft 132 kts 348°
2026-05-07 20:10 39.56090 19.92341 708 ft 130 kts 348°
2026-05-07 20:10 39.56981 19.92061 512 ft 130 kts 345°
2026-05-07 20:11 39.57860 19.91805 347 ft 127 kts 349°
2026-05-07 20:11 39.58752 19.91577 124 ft 129 kts 348°
2026-05-07 20:11 39.59608 19.91349 5 ft 124 kts 346°
2026-05-07 20:11 39.60339 19.91180 1 ft 84 kts 347°
2026-05-07 20:12 39.60864 19.91024 5 ft 77 kts 342°
2026-05-07 20:12 39.60876 19.91020 5 ft 1 kts 349°
2026-05-07 20:12 39.60892 19.91016 5 ft 2 kts 351°
2026-05-07 20:12 39.60919 19.91013 5 ft 5 kts 356°
2026-05-07 20:13 39.60975 19.91009 6 ft 10 kts 357°
2026-05-07 20:13 39.61038 19.91039 6 ft 9 kts 64°
2026-05-07 20:13 39.61048 19.91066 6 ft 4 kts 66°
2026-05-07 20:13 39.61057 19.91095 6 ft 1 kts 71°
2026-05-07 20:14 39.61044 19.91117 6 ft 6 kts 153°
2026-05-07 20:14 39.60986 19.91140 5 ft 6 kts 159°
2026-05-07 20:14 39.60970 19.91184 5 ft 5 kts 85°
2026-05-07 20:14 39.60976 19.91230 5 ft 3 kts 78°
2026-05-07 20:15 39.60978 19.91237 5 ft 0 kts 78°